Fort Eustis, VA

10:30 AM EDT on October 15, 2019 (GMT -0400)
Felker Army Air Field

Weather History for KFAF - September, 2019

Change the Weather History Date:

Monday, September 16, 2019

  Actual Average Record
Temperature  
Mean Temperature 78 °F -  
Max Temperature 84 °F 78 °F 93 °F (1998)
Min Temperature 71 °F 63 °F 56 °F (2007)
Cooling Degree Days 12    
Growing Degree Days 28 (Base 50)    
Moisture  
Dew Point 66 °F    
Average Humidity 73    
Maximum Humidity 85    
Minimum Humidity 47    
Precipitation  
Precipitation 0.00 in - - ()
Sea Level Pressure  
Sea Level Pressure 30.03 in    
Wind  
Wind Speed 2 mph ()    
Max Wind Speed 8 mph    
Max Gust Speed -    
Visibility 7.5 miles    
Events Fog    
Averages and records for this station are not official NWS values.
T = Trace of Precipitation, MM = Missing Value Source: Averaged Metar Reports

Daily Weather History Graph

Daily Weather History Graph

Search for Another Location

Airport or City:

Astronomy

Sep. 16, 2019 Rise Set
Actual Time 6:49 AM EDT 7:12 PM EDT
Civil Twilight 6:23 AM EDT 7:38 PM EDT
Nautical Twilight 5:52 AM EDT 8:09 PM EDT
Astronomical Twilight 5:21 AM EDT 8:40 PM EDT
Moon 8:49 PM EDT (9/16) 8:52 AM EDT (9/16)
Length of Visible Light 13h 15m
Length of Day
12h 23m
Waning Gibbous, 94% of the Moon is Illuminated
Sep 16
Waning Gibbous
Sep 21
Last Quarter
Sep 28
New
Oct 5
First Quarter
Oct 13
Full

Hourly Weather History & Observations

Time (EDT) Temp. Heat Index Dew Point Humidity Pressure Visibility Wind Dir Wind Speed Gust Speed Precip Events Conditions
12:56 AM 73.4 °F - 67.8 °F 83% 30.08 in 10.0 mi Calm Calm - N/A   Clear
1:56 AM 72.9 °F - 67.6 °F 84% 30.06 in 10.0 mi Calm Calm - N/A   Clear
2:56 AM 72.0 °F - 67.1 °F 85% 30.06 in 10.0 mi Calm Calm - N/A   Clear
3:56 AM 71.6 °F - 66.2 °F 83% 30.05 in 10.0 mi Calm Calm - N/A   Clear
4:56 AM 71.6 °F - 66.2 °F 83% 30.05 in 10.0 mi Calm Calm - N/A   Clear
5:36 AM 71.6 °F - 66.2 °F 83% 30.05 in 6.0 mi Calm Calm - N/A   Scattered Clouds
5:46 AM 71.6 °F - 66.2 °F 83% 30.05 in 4.0 mi Calm Calm - N/A   Mostly Cloudy
5:56 AM 72.5 °F - 66.9 °F 83% 30.05 in 3.0 mi Calm Calm - N/A   Mostly Cloudy
6:16 AM 71.6 °F - 66.2 °F 83% 30.05 in 3.0 mi Calm Calm - N/A   Scattered Clouds
6:36 AM 71.6 °F - 66.2 °F 83% 30.05 in 0.5 mi North 3.5 mph - N/A Fog Fog
6:56 AM 72.7 °F - 67.1 °F 83% 30.06 in 0.1 mi NNW 4.6 mph - N/A Fog Fog
7:01 AM 73.4 °F - 68.0 °F 83% 30.06 in 0.1 mi North 3.5 mph - N/A Fog Fog
7:26 AM 73.4 °F - 66.2 °F 78% 30.06 in 0.1 mi North 3.5 mph - N/A Fog Fog
7:56 AM 72.3 °F - 66.7 °F 83% 30.06 in 0.1 mi North 3.5 mph - N/A Fog Fog
9:01 AM 71.6 °F - 66.2 °F 83% 30.08 in 6.0 mi NNE 3.5 mph - N/A   Mostly Cloudy
9:11 AM 73.4 °F - 68.0 °F 83% 30.08 in 5.0 mi North 3.5 mph - N/A   Mostly Cloudy
9:21 AM 73.4 °F - 68.0 °F 83% 30.08 in 6.0 mi North 3.5 mph - N/A   Mostly Cloudy
9:41 AM 73.4 °F - 68.0 °F 83% 30.08 in 10.0 mi NNW 5.8 mph - N/A   Overcast
9:56 AM 74.1 °F - 67.8 °F 81% 30.08 in 10.0 mi North 3.5 mph - N/A   Mostly Cloudy
10:06 AM 75.2 °F - 68.0 °F 78% 30.08 in 10.0 mi NNW 4.6 mph - N/A   Mostly Cloudy
10:56 AM 78.6 °F - 69.3 °F 73% 30.07 in 10.0 mi North 4.6 mph - N/A   Partly Cloudy
11:56 AM 82.8 °F 83.6 °F 62.2 °F 50% 30.06 in 10.0 mi NE 3.5 mph - N/A   Partly Cloudy
12:56 PM 84.4 °F 85.0 °F 61.9 °F 47% 30.04 in 10.0 mi SSE 6.9 mph - N/A   Partly Cloudy
1:56 PM 82.8 °F 84.7 °F 65.8 °F 56% 30.02 in 10.0 mi SW 6.9 mph - N/A   Partly Cloudy
2:56 PM 83.5 °F 85.1 °F 64.9 °F 53% 30.00 in 10.0 mi South 5.8 mph - N/A   Partly Cloudy
3:56 PM 83.7 °F 84.9 °F 63.5 °F 51% 29.97 in 10.0 mi South 8.1 mph - N/A   Partly Cloudy
4:56 PM 83.8 °F 84.3 °F 61.3 °F 47% 29.96 in 10.0 mi SE 5.8 mph - N/A   Partly Cloudy
5:56 PM 82.0 °F 83.6 °F 64.2 °F 55% 29.95 in 10.0 mi South 5.8 mph - N/A   Partly Cloudy
6:56 PM 79.2 °F - 63.5 °F 59% 29.96 in 10.0 mi SE 4.6 mph - N/A   Partly Cloudy
7:56 PM 77.9 °F - 61.9 °F 58% 29.97 in 10.0 mi ESE 4.6 mph - N/A   Partly Cloudy
8:56 PM 76.5 °F - 62.1 °F 61% 29.96 in 10.0 mi ESE 5.8 mph - N/A   Partly Cloudy
9:56 PM 75.0 °F - 63.7 °F 68% 29.98 in 10.0 mi ESE 5.8 mph - N/A   Partly Cloudy
10:56 PM 73.4 °F - 63.3 °F 71% 29.97 in 10.0 mi Calm Calm - N/A   Partly Cloudy
11:56 PM 73.0 °F - 64.6 °F 75% 29.96 in 10.0 mi Calm Calm - N/A   Clear